TIME,DELAY(SENSOR),PRES,OXYGEN,RAWTEMP,T(OPTODE),TCPHASE,FLUOR,BETA(BETA700),BETA(BETA412),BETA(BETA440),CDOM,C(CSC),ED(ED411.90),ED(ED443.80),ED(ED489.40),ED(ED554.70),LU(LU412.20),LU(LU443.80),LU(LU489.40),LU(LU555.00),COMP,TILTX,TILTY,CHECK
1339363715,5803,846.2000122070312000,181.3625946044922000,473.9985961914062500,8.6918573379516600,39.2215805053710940,51,106,103,78,77,15468,2147446134,2147793216,2147587840,2147828315,2147305792,2147456493,2147760374,2148275428,1451,6,14,27961
1339367311,5804,9.8000001907348630,216.7216033935547000,529.6149291992188000,6.9500517845153810,37.9989700317382800,51,105,103,80,76,15463,2147433472,2147797056,2147589750,2147832676,2147307520,2147456594,2147766052,2148280978,3326,6,14,54344
1339370911,5805,9.8999996185302730,227.1703033447265600,537.0515136718750000,6.7154979705810550,37.5531806945800800,51,107,103,78,76,15455,2147437110,2147803026,2147585636,2147838116,2147305993,2147448365,2147765659,2148278390,143,6,14,14632
1339374511,5806,998.0000000000000000,228.6779937744140600,538.9699707031250000,6.6549210548400880,37.5066108703613300,52,106,103,78,77,15448,2147435556,2147798125,2147588672,2147830884,2147307072,2147445083,2147766208,2148280877,102,6,15,13422
1339378111,5800,9.3000001907348630,229.3796997070312500,540.4851074218750000,6.6070590019226070,37.4965782165527340,51,105,103,79,77,15457,2147431131,2147800027,2147588160,2147834029,2147304045,2147447442,2147764059,2148282596,3583,6,15,63250
1339381711,5802,9.3000001907348630,230.0643005371093800,540.3416137695312000,6.6115951538085940,37.4567985534668000,51,106,104,77,77,15451,2147434925,2147801984,2147585398,2147834112,2147307474,2147441920,2147768064,2148281572,3576,6,15,9843
1339385311,5802,946.0000000000000000,229.9355926513672000,540.7122192382812000,6.5998821258544920,37.4709205627441400,51,112,102,78,76,15450,2147436891,2147803154,2147586386,2147836443,2147306669,2147449142,2147768173,2148279579,143,6,15,44251
1339388911,5804,920.0000000000000000,229.7843933105468800,541.8040161132812000,6.5653839111328125,37.4979591369628900,51,106,102,79,76,15449,2147436598,2147800758,2147586313,2147832850,2147307318,2147450130,2147767789,2148281910,235,6,15,43235
1339392511,5804,9.3000001907348630,227.5229034423828000,542.7595214843750000,6.5351791381835940,37.6372489929199200,51,108,102,78,75,15444,2147433810,2147802048,2147586697,2147836525,2147306404,2147450907,2147771821,2148281097,3085,6,15,47814
1339396111,5804,923.0000000000000000,228.7440032958984400,544.5490112304688000,6.4785981178283690,37.6032600402832000,51,105,103,79,77,15444,2147437275,2147800009,2147589558,2147833234,2147304329,2147450889,2147766994,2148282532,21,6,15,33423
1339399711,5802,942.0000000000000000,230.5090942382812500,544.1516113281250000,6.4911627769470215,37.5016212463378900,51,106,103,78,76,15446,2147434925,2147799570,2147587629,2147834880,2147306441,2147447908,2147768356,2148282029,303,6,15,5025
1339403311,5804,961.0000000000000000,233.0227966308593800,546.1121826171875000,6.4291501045227050,37.4042282104492200,51,107,104,78,77,15432,2147433755,2147802038,2147588379,2147836233,2147306194,2147455094,2147769280,2148284480,2852,6,15,54555
1339406911,5803,948.0000000000000000,232.6336975097656200,546.3303222656250000,6.4222488403320310,37.4287109375000000,51,105,104,77,75,15435,2147436361,2147798601,2147586404,2147832822,2147308726,2147446235,2147770788,2148280210,3102,6,15,301
1339410511,5804,9.8000001907348630,234.7742004394531200,546.9470825195312000,6.4027290344238280,37.3275794982910160,51,109,102,78,76,15434,2147433636,2147800576,2147588059,2147836013,2147304795,2147445302,2147769078,2148281243,3455,6,15,50641
1339414111,5804,10.6999998092651370,230.1040954589843800,544.0250244140625000,6.4951667785644530,37.5213088989257800,51,107,106,80,76,15435,2147435190,2147799241,2147587712,2147833910,2147305709,2147448722,2147771849,2148280292,481,6,15,10611
1339417711,5803,1047.0000000000000000,228.5330963134765600,543.2631225585938000,6.5192599296569820,37.5916213989257800,51,106,102,78,76,15434,2147435154,2147801691,2147586176,2147832530,2147308882,2147450139,2147764909,2148281426,506,6,15,42474
1339421311,5805,1094.0000000000000000,228.5453033447265600,542.0598144531250000,6.5572991371154785,37.5692787170410160,51,109,104,79,75,15431,2147436845,2147801316,2147585005,2147833947,2147304219,2147449435,2147767826,2148280448,2971,6,15,2681
1339424911,5803,1010.0000000000000000,229.6184997558593800,540.8734130859375000,6.5947899818420410,37.4901504516601560,52,109,102,78,76,15431,2147436059,2147804132,2147586880,2147834660,2147304804,2147449005,2147770413,2148276562,3480,6,15,43350
1339428511,5798,1076.0000000000000000,228.5850982666015600,540.7081298828125000,6.6000142097473145,37.5430412292480500,50,105,103,79,76,15425,2147439332,2147803044,2147588745,2147835446,2147306870,2147447378,2147771062,2148283812,3588,6,15,59816
1339432111,5805,1031.0000000000000000,227.9058074951172000,542.5413818359375000,6.5420742034912110,37.6126899719238300,51,108,104,78,76,15430,2147439396,2147804516,2147589339,2147833782,2147306102,2147448685,2147765897,2148281508,153,6,15,3157
1339435711,5802,10.6999998092651370,227.9568023681640600,542.9517822265625000,6.5290989875793460,37.6174316406250000,50,224,104,79,76,15429,2147435136,2147802358,2147587574,2147836114,2147306477,2147445531,2147762678,2148281609,3592,6,15,29659
1339439311,5805,1042.0000000000000000,228.2079010009765600,542.9279174804688000,6.5298581123352050,37.6035499572753900,51,107,102,78,76,15427,2147436160,2147799040,2147589275,2147836169,2147305462,2147447286,2147768630,2148280219,390,6,15,56549
1339442911,5803,9.6000003814697270,230.6775054931640600,545.8798217773438000,6.4365019798278810,37.5239486694335940,52,107,103,78,77,15423,2147436854,2147799378,2147590070,2147834340,2147306706,2147447524,2147767616,2148279414,170,6,14,18676
1339446511,5803,9.6000003814697270,235.8433990478515600,549.8963012695312000,6.3093681335449220,37.3249092102050800,51,111,102,79,76,15419,2147437366,2147800786,2147589385,2147835968,2147305243,2147444845,2147764452,2148282715,1014,6,15,189
1339450111,5803,9.1000003814697270,237.6732025146484400,550.2761230468750000,6.2973380088806150,37.2368202209472660,51,338,104,79,76,15420,2147436242,2147799606,2147587081,2147831497,2147306678,2147447442,2147767268,2148280822,136,6,15,47488
1339453711,5804,10.0000000000000000,240.0769958496093800,550.4232177734375000,6.2926812171936035,37.1158485412597660,51,107,104,79,76,15420,2147434998,2147801453,2147590390,2147837357,2147304301,2147448411,2147771821,2148278518,3582,6,15,62911
1339457311,5806,10.1999998092651370,236.7003021240234400,547.2562255859375000,6.3929481506347660,37.2329597473144500,50,104,104,79,77,15400,2147433435,2147799460,2147589741,2147836964,2147307648,2147447652,2147769069,2148282678,477,6,15,43617
1339460911,5803,10.8000001907348630,228.8110961914062500,544.1021118164062000,6.4927310943603520,37.5915298461914060,51,105,103,79,76,15401,2147433718,2147797787,2147588507,2147832576,2147304237,2147447085,2147765248,2148282578,3505,6,15,61875
1339464511,5804,1087.0000000000000000,225.9485931396484400,543.2263793945312000,6.5204181671142580,37.7307395935058600,51,105,106,79,77,15399,2147436864,2147801371,2147589897,2147835428,2147304173,2147446966,2147765686,2148282258,44,6,14,5073
1339468111,5806,1068.0000000000000000,227.3179016113281200,543.2822875976562000,6.5186519622802730,37.6570587158203100,51,105,103,78,77,15390,2147431168,2147798272,2147586294,2147833627,2147307410,2147448438,2147768027,2148285458,123,6,14,10838
1339471711,5805,1036.0000000000000000,226.4048004150390600,543.4500732421875000,6.5133481025695800,37.7099494934082000,51,107,104,78,76,15399,2147433024,2147801316,2147584009,2147836608,2147307867,2147444736,2147765869,2148285211,313,6,15,40255
1339475311,5806,10.0000000000000000,226.4020996093750000,543.4827270507812000,6.5123162269592285,37.7106781005859400,51,106,104,80,76,15397,2147434715,2147799350,2147586038,2147830061,2147306304,2147442468,2147773824,2148283648,71,6,14,31532
1339478911,5803,1075.0000000000000000,227.4797058105468800,543.2760009765625000,6.5188498497009280,37.6488189697265600,51,104,103,78,77,15394,2147438948,2147802029,2147588096,2147833371,2147304640,2147443163,2147766409,2148282084,3516,6,15,40574
1339482511,5803,1091.0000000000000000,226.8840026855468800,543.0842285156250000,6.5249137878417970,37.6777000427246100,51,106,103,78,76,15391,2147436406,2147799981,2147589275,2147832429,2147304091,2147446491,2147768274,2148282715,3472,6,15,37908
1339486111,5804,10.1999998092651370,228.8809967041015600,544.7578125000000000,6.4719920158386230,37.6002311706543000,52,105,102,79,76,15387,2147435218,2147800630,2147584722,2147834057,2147304612,2147446619,2147766290,2148284781,3062,6,15,31719
1339489711,5803,9.1000003814697270,235.4297943115234400,548.4865722656250000,6.3540039062500000,37.3210906982421900,51,106,102,79,75,15383,2147434194,2147799881,2147590144,2147833956,2147306614,2147440740,2147771465,2148280210,3523,6,15,16277
1339493311,5802,10.8000001907348630,234.6264038085937500,549.9915771484375000,6.3063511848449710,37.3902282714843750,51,108,102,79,76,15384,2147430765,2147804443,2147587849,2147835885,2147307520,2147447780,2147769618,2148283300,3561,6,15,19549
1339496911,5799,108.0000000000000000,238.8975067138672000,549.8983764648438000,6.3093028068542480,37.1673889160156250,51,107,103,78,77,15381,2147433965,2147801517,2147588580,2147835940,2147305252,2147445796,2147769856,2148283492,3592,6,15,29120
1339500511,5805,1062.0000000000000000,238.1891021728515600,549.8756713867188000,6.3100199699401855,37.2027893066406250,51,114,103,79,75,15381,2147435584,2147800493,2147587291,2147832566,2147304941,2147449362,2147770395,2148281554,477,6,15,20162
1339504111,5804,1072.0000000000000000,236.5160980224609400,549.4105834960938000,6.3247470855712890,37.2815818786621100,51,106,109,79,75,15380,2147434468,2147796918,2147587894,2147830875,2147306843,2147442944,2147770953,2148284534,3512,6,15,21992
1339507711,5804,1011.0000000000000000,234.5792999267578000,547.2180786132812000,6.3941559791564940,37.3422584533691400,51,108,103,79,75,15374,2147433910,2147801563,2147587648,2147835666,2147305956,2147446244,2147765531,2148283236,3561,6,15,53419
1339508755,5803,1036.0000000000000000,233.5968017578125000,546.3870239257812000,6.4204559326171875,37.3788414001464840,51,105,103,77,76,15356,2147433773,2147799661,2147585563,2147835044,2147304822,2147447323,2147769645,2148283922,3247,6,15,55319
